STARLINK-31659, 59254

Orbit data source: Space-Track

STARLINK-31659, 59254 is a payload satellite owned by SpaceX/Seattle (US) in LEO that was launched on Tue, 19 Mar 2024 UTC via an FALCON 9 launch vehicle from the Air Force Western Test Range (AFWTR). Payload-class satellites include a variety of spacecraft equipped with specific instruments for various scientific and technological missions. These include communications satellites like Starlink; space stations such as the ISS; scientific satellites like the Hubble; Earth observation satellites from companies like Planet Labs, Umbra, and HawkEye 360; GPS; miniature CubeSats for education and research; and military/defense satellites.

Loading next visibility...
Identifier
59254, 2024-050A
Orbit
LEO
Country
Flag of USUS
Related business
Manufacturer
SpaceX/Seattle
Mission
Operational Commercial Communications
Bus & Motor
STARLINK V2M, Unknown motor
Mass
730 kg wet, ~700 kg dry
Launch date (UTC)
2024-03-19 (2 years ago)
Launch vehicle
FALCON 9
Launch site
Air Force Western Test Range (AFWTR)
Object type
Payload
Rocket body
Debris
Shape & HBR
Box + 2 Pan, 17.7 m
Radar Cross Section
33.884 m², Large (>1 m²)

Expand to show TLE details & history
Last TLE update: 3 days ago

TLE from 3 days ago
0 STARLINK-31659
1 59254U 24050A   26170.85111784 -.00000742  00000-0 -10831-4 0  9999
2 59254  53.1606  62.6634 0001357 121.1812 238.9324 15.34396727127397
Epoch: 2026-06-19T20:25Z
TLE epoch observation values (Epoch: 2026-06-19T20:25:36.581Z)
Latitude
Longitude
-151.81318°
Altitude
464.094 km
Speed
7.635 km/s
True Right ascension
04h 10m 39s
True Declination
0° 00' 00"
Sunlit
Object was in daylight at epoch
Visualization orbit readout
Latitude
Unknown
Longitude
Unknown
Altitude
Unknown
Speed
Unknown
Apparent Right ascension
Unknown
Apparent Declination
Unknown
Sunlit
N/A
Visualization observer readout
Local Sidereal Time
21:30:14
Azimuth
Unknown
Elevation
Unknown
Doppler factor
Unknown
Orbital elements
Apogee altitude
463.898 km
Perigee altitude
462.041 km
Semi-major axis
6,841.107 km
Eccentricity
0.00014
Inclination
53.1606°
RAAN
62.6634°
Arg. of periapsis
121.1812°
True anomaly
238.91908°
Mean anomaly
238.9324°
Eccentric anomaly
238.92574°
Mean motion
3.83578 °/min
Orbital period
93.85 mins
BSTAR
-0.000010831
Loading maneuver chart data...
Computing Atmospheric mass density...
Loading historical data...
Loading historical data...
Loading historical data...
Loading historical data...
Loading historical data...
Loading historical data...
Loading historical data...

Documentation

Showing up to 5 results
|